User: anonymous   Login
Location: ??????
(41.3164°N, 22.6615°E)
Time: 23:56:37
(UTC+00:00)
Language:

COSMOS 1408 DEB - Orbit

View from above orbital plane
View from above orbital plane
View from above satellite
View from above satellite

Ground track
Ground track

The orbit data is extracted from the following two-line orbital elements,

1 50022U 82092RJ  22222.28822066  .00119179  00000-0  16329-2 0  9995
2 50022  82.8035 222.9094 0031754 233.7573 126.0747 15.56362920 38822
Epoch (UTC): 10 August 2022 06:55:02
Eccentricity: 0.0031754
inclination: 82.8035°
perigee height: 376 km
apogee height: 420 km
right ascension of ascending node: 222.9094°
argument of perigee: 233.7573°
revolutions per day: 15.56362920
mean anomaly at epoch: 126.0747°
orbit number at epoch: 3882

The dashed part of the orbit path shows where the satellite is in the earth's shadow,  

DLR